Flag Weather past 2 weeks in Qyzylorda, Kazakhstan

Now
18 °F

Sunny.


Feels Like: 9 °F
Forecast: 10 / 20 °F
Wind: 6 mph from West

Location: Kzyl-Orda

Current Time: Nov 27, 2014 at 12:55:59 PM

Latest Report: Nov 27, 2014 at 12:30 PM


Visibility: 10 mi

Pressure: 30.33 "Hg

Humidity: 58%

Dew point: 5 °F

Location of QyzylordaLocation

Historic Weather in Qyzylorda — Graph

°F

Qyzylorda temperature yesterday

Maximum temperature yesterday: 21 °F (at 2:30 PM)
Minimum temperature yesterday: 0 °F (at 7:00 AM)
Average temperature yesterday: 11 °F

Past Weeks' High & Low Weather Summary

 TemperatureHumidityPressure
High48 °F (Nov 17, 3:30 PM)100% (Nov 12, 1:30 PM)30.74 "Hg (Nov 12, 1:30 PM)
Low-2 °F (Nov 25, 7:30 AM)22% (Nov 21, 4:00 PM)29.80 "Hg (Nov 24, 3:00 AM)
Average26 °F78%30.38 "Hg
* Reported Nov 12 11:00 AM — Nov 27 11:30 AM, Qyzylorda, Weather by CustomWeather, © 2014

Note: Actual official high and low records may vary slightly from our data, if they occured in-between our weather recording intervals... More about our weather records

Advertising

Qyzylorda weather history for previous 24 hours

 ConditionsComfort  
Time TempWeatherWind HumidityBarometerVisibility
11:30 AM
Nov 27
14 °FSunny.3 mph67%30.33 "Hg10 mi
11:00 AM9 °FSunny.6 mph85%30.30 "Hg10 mi
10:30 AM7 °FSunny.3 mph85%30.30 "Hg10 mi
10:00 AM5 °FSunny.3 mph85%30.30 "Hg10 mi
9:30 AM3 °FSunny.3 mph85%30.30 "Hg10 mi
9:00 AM3 °FSunny.3 mph85%30.27 "Hg10 mi
8:30 AM3 °FClear.6 mph78%30.27 "Hg10 mi
8:00 AM1 °FClear.3 mph85%30.27 "Hg10 mi
7:30 AM1 °FClear.3 mph85%30.27 "Hg10 mi
7:00 AM1 °FClear.3 mph85%30.27 "Hg10 mi
6:00 AM0 °FClear.3 mph84%30.27 "Hg10 mi
5:00 AM0 °FClear.6 mph84%30.27 "Hg10 mi
4:00 AM3 °FClear.1 mph85%30.27 "Hg10 mi
3:00 AM3 °FClear.3 mph92%30.27 "Hg10 mi
2:00 AM3 °FClear.3 mph92%30.27 "Hg10 mi
1:00 AM1 °FClear.6 mph92%30.30 "Hg10 mi
12:00 AM3 °FClear.3 mph85%30.30 "Hg10 mi
11:00 PM
Nov 26
7 °FClear.3 mph85%30.33 "Hg10 mi
10:00 PM9 °FClear.6 mph78%30.33 "Hg10 mi
9:00 PM12 °FClear.6 mph67%30.33 "Hg10 mi
8:00 PM14 °FClear.8 mph57%30.36 "Hg10 mi
7:30 PM14 °FClear.8 mph57%30.36 "Hg10 mi
7:00 PM14 °FClear.8 mph62%30.39 "Hg10 mi
6:30 PM16 °FClear.8 mph57%30.39 "Hg10 mi
6:00 PM18 °FSunny.6 mph53%30.39 "Hg10 mi
5:30 PM19 °FSunny.6 mph49%30.39 "Hg10 mi
5:00 PM19 °FSunny.8 mph49%30.39 "Hg10 mi
4:30 PM21 °FSunny.10 mph45%30.39 "Hg10 mi
4:00 PM21 °FSunny.10 mph49%30.42 "Hg10 mi
3:30 PM21 °FSunny.13 mph45%30.42 "Hg10 mi
3:00 PM21 °FSunny.10 mph42%30.45 "Hg10 mi
2:30 PM21 °FSunny.13 mph45%30.45 "Hg10 mi
2:00 PM19 °FSunny.13 mph45%30.48 "Hg10 mi
1:30 PM19 °FSunny.15 mph45%30.48 "Hg10 mi
1:00 PM18 °FPassing clouds.10 mph53%30.48 "HgN/A
12:30 PM18 °FSunny.10 mph49%30.48 "Hg10 mi
12:00 PM14 °FSunny.13 mph62%30.54 "Hg10 mi
Weather by CustomWeather, © 2014

See weather overviewHow to use our weather pages